Solana Beach (660, 1081) Station Data

Red Flag Warning: No
Fire Weather Zone: 243
SDGE Region: Beach Cities
Lat/Lon: 33.007/-117.276

Observations

Time Wind Speed/Gust Temp(F) RH Fuel Moist Fuel Temp(F) Dewpt(F) Tmax(F) Tmin(F) Accum Precip 10-min Precip SL Press(mb)
3/29 8:00am 104 8 G 11 50° 89% - - 47° 52.3° 45.1° - - 1017.0
3/29 7:50am 100 8 G 11 49° 91% - - 46° 52.3° 45.1° - - 1017.0
3/29 7:40am 95 8 G 11 48° 92% - - 45° 52.3° 45.1° - - 1017.0
3/29 7:30am 95 7 G 9 47° 93% - - 45° 52.3° 45.1° - - 1017.0
3/29 7:20am 96 7 G 10 46° 93% - - 44° 52.3° 45.1° - - 1017.0
3/29 7:10am 103 6 G 9 47° 93% - - 45° 52.3° 45.1° - - 1017.0
3/29 7:00am 95 7 G 9 46° 93% - - 44° 52.3° 45.1° - - 1017.0
3/29 6:50am 89 7 G 8 46° 94% - - 44° 52.3° 45.1° - - 1017.0
3/29 6:40am 89 7 G 9 46° 94% - - 44° 52.3° 45.1° - - 1016.0
3/29 6:30am 89 8 G 10 45° 93% - - 44° 52.3° 45.1° - - 1016.0
3/29 6:20am 86 8 G 10 46° 93% - - 44° 52.3° 45.9° - - 1016.0
3/29 6:10am 86 8 G 11 46° 93% - - 44° 52.3° 45.9° - - 1016.0
3/29 6:00am 86 9 G 10 46° 93% - - 44° 52.3° 45.9° - - 1016.0
3/29 5:50am 85 8 G 11 46° 93% - - 44° 52.3° 45.9° - - 1016.0
3/29 5:40am 91 9 G 11 47° 93% - - 45° 52.3° 45.9° - - 1016.0
3/29 5:30am 97 9 G 11 47° 93% - - 45° 52.3° 45.9° - - 1016.0
3/29 5:20am 94 9 G 11 46° 93% - - 45° 52.3° 46.1° - - 1016.0
3/29 5:10am 93 8 G 10 47° 94% - - 45° 52.3° 46.1° - - 1016.0
3/29 5:00am 100 6 G 9 46° 94% - - 45° 52.3° 46.1° - - 1016.0
3/29 4:50am 96 7 G 10 47° 94% - - 45° 52.3° 46.2° - - 1016.0
3/29 4:40am 94 7 G 10 47° 94% - - 45° 52.3° 46.4° - - 1016.0
3/29 4:30am 95 8 G 11 47° 93% - - 45° 52.3° 46.5° - - 1016.0
3/29 4:20am 104 8 G 10 47° 93% - - 45° 52.3° 46.6° - - 1016.0
3/29 4:10am 104 6 G 7 47° 92% - - 45° 52.3° 46.9° - - 1016.0
3/29 4:00am 98 5 G 8 48° 90% - - 45° 52.3° 47.6° - - 1016.0
3/29 3:50am 104 4 G 7 48° 89% - - 45° 52.3° 48.2° - - 1016.0
3/29 3:40am 109 3 G 4 49° 88% - - 45° 52.3° 48.2° - - 1017.0
3/29 3:30am 98 5 G 7 50° 86% - - 46° 52.3° 48.3° - - 1016.0
3/29 3:20am 94 7 G 10 50° 87% - - 46° 52.3° 48.3° - - 1016.0
3/29 3:10am 85 6 G 9 49° 90% - - 47° 52.3° 48.3° - - 1016.0
3/29 3:00am 93 6 G 10 48° 91% - - 46° 52.3° 48.3° - - 1016.0
3/29 2:50am 91 8 G 11 49° 90% - - 46° 52.3° 48.4° - - 1016.0
3/29 2:40am 88 7 G 10 49° 91% - - 47° 52.3° 48.7° - - 1016.0
3/29 2:30am 80 7 G 10 49° 90% - - 46° 52.3° 48.7° - - 1016.0
3/29 2:20am 90 7 G 11 49° 90% - - 47° 52.3° 48.7° - - 1016.0
3/29 2:10am 93 8 G 13 49° 91% - - 47° 52.3° 48.8° - - 1016.0
3/29 2:00am 93 7 G 10 49° 90% - - 47° 52.3° 49.1° - - 1017.0
3/29 1:50am 88 9 G 11 50° 89% - - 47° 52.3° 49.4° - - 1017.0
3/29 1:40am 86 7 G 9 50° 88% - - 47° 52.3° 49.8° - - 1017.0
3/29 1:30am 90 7 G 9 50° 88% - - 47° 52.3° 49.9° - - 1017.0
3/29 1:20am 93 7 G 9 51° 87% - - 47° 52.3° 49.9° - - 1017.0
3/29 1:10am 96 8 G 11 51° 89% - - 47° 52.3° 49.9° - - 1017.0
3/29 1:00am 95 7 G 10 51° 89% - - 47° 52.3° 50.1° - - 1017.0
3/29 12:50am 94 7 G 9 51° 88% - - 48° 52.3° 50.2° - - 1017.0
3/29 12:40am 101 6 G 9 51° 90% - - 48° 52.3° 50.2° - - 1017.0
3/29 12:30am 95 5 G 7 51° 89% - - 48° 52.3° 50.5° - - 1017.0
3/29 12:20am 94 7 G 10 52° 86% - - 48° 52.3° 51.5° - - 1017.0
3/29 12:10am 103 7 G 10 52° 89% - - 49° 52.3° 51.5° - - 1017.0
3/29 12:00am 100 6 G 10 52° 89% - - 49° 65.7° 46.7° - - 1017.0
3/28 11:50pm 95 8 G 11 52° 87% - - 49° 65.7° 46.7° - - 1017.0
3/28 11:40pm 97 7 G 10 53° 88% - - 49° 65.7° 46.7° - - 1017.0
3/28 11:30pm 97 8 G 10 53° 87% - - 49° 65.7° 46.7° - - 1017.0
3/28 11:20pm 99 8 G 10 53° 90% - - 50° 65.7° 46.7° - - 1017.0
3/28 11:10pm 95 7 G 10 53° 90% - - 50° 65.7° 46.7° - - 1017.0
3/28 11:00pm 88 8 G 9 53° 89% - - 50° 65.7° 46.7° - - 1017.0
3/28 10:50pm 93 6 G 8 53° 89% - - 50° 65.7° 46.7° - - 1017.0
3/28 10:40pm 97 6 G 9 54° 88% - - 50° 65.7° 46.7° - - 1017.0
3/28 10:30pm 87 6 G 8 55° 86% - - 51° 65.7° 46.7° - - 1017.0
3/28 10:20pm 87 6 G 7 55° 86% - - 51° 65.7° 46.7° - - 1017.0
3/28 10:10pm 97 6 G 7 55° 87% - - 51° 65.7° 46.7° - - 1017.0
3/28 10:00pm 99 5 G 7 55° 87% - - 51° 65.7° 46.7° - - 1017.0
3/28 9:50pm 104 5 G 7 56° 87% - - 52° 65.7° 46.7° - - 1017.0
3/28 9:40pm 89 4 G 5 56° 86% - - 52° 65.7° 46.7° - - 1017.0
3/28 9:30pm 102 4 G 5 56° 86% - - 52° 65.7° 46.7° - - 1017.0
3/28 9:20pm 98 4 G 5 57° 86% - - 53° 65.7° 46.7° - - 1017.0
3/28 9:10pm 108 5 G 6 56° 86% - - 52° 65.7° 46.7° - - 1017.0
3/28 9:00pm 106 4 G 5 57° 83% - - 52° 65.7° 46.7° - - 1017.0
3/28 8:50pm 99 5 G 7 57° 83% - - 52° 65.7° 46.7° - - 1016.0
3/28 8:40pm 94 5 G 6 58° 83% - - 53° 65.7° 46.7° - - 1017.0
3/28 8:30pm 103 3 G 6 59° 82% - - 53° 65.7° 46.7° - - 1017.0
3/28 8:20pm 82 1 G 2 60° 81% - - 54° 65.7° 46.7° - - 1016.0
3/28 8:10pm 109 1 G 1 60° 81% - - 54° 65.7° 46.7° - - 1016.0
3/28 8:00pm 115 1 G 2 60° 80% - - 54° 65.7° 46.7° - - 1016.0
3/28 7:50pm 98 1 G 2 61° 81% - - 55° 65.7° 46.7° - - 1016.0
3/28 7:40pm 196 1 G 2 62° 79% - - 56° 65.7° 46.7° - - 1016.0
3/28 7:30pm 250 2 G 4 63° 77% - - 55° 65.7° 46.7° - - 1016.0
3/28 7:20pm 237 3 G 4 63° 77% - - 55° 65.7° 46.7° - - 1016.0
3/28 7:10pm 230 3 G 4 63° 77% - - 56° 65.7° 46.7° - - 1016.0
3/28 7:00pm 207 4 G 5 63° 77% - - 56° 65.7° 46.7° - - 1015.0
3/28 6:50pm 233 4 G 5 63° 78% - - 56° 65.7° 46.7° - - 1015.0
3/28 6:40pm 262 3 G 4 64° 75% - - 56° 65.7° 46.7° - - 1015.0
3/28 6:30pm 262 3 G 4 65° 72% - - 55° 65.7° 46.7° - - 1016.0
3/28 6:20pm 296 1 G 3 65° 72% - - 55° 65.7° 46.7° - - 1016.0
3/28 6:10pm 306 3 G 5 65° 72% - - 55° 65.7° 46.7° - - 1015.0
3/28 6:00pm 280 2 G 5 65° 71% - - 55° 65.7° 46.7° - - 1015.0
3/28 5:50pm 271 3 G 4 65° 71% - - 55° 65.7° 46.7° - - 1015.0
3/28 5:40pm 287 3 G 5 65° 71% - - 55° 65.7° 46.7° - - 1015.0
3/28 5:30pm 299 4 G 5 65° 72% - - 56° 65.7° 46.7° - - 1015.0
3/28 5:20pm 307 6 G 7 65° 73% - - 56° 65.7° 46.7° - - 1015.0
3/28 5:10pm 289 5 G 7 64° 75% - - 56° 65.7° 46.7° - - 1015.0
3/28 5:00pm 293 5 G 6 64° 75% - - 56° 65.7° 46.7° - - 1015.0
3/28 4:50pm 304 5 G 7 65° 74% - - 56° 65.7° 46.7° - - 1015.0
3/28 4:40pm 299 6 G 7 65° 75% - - 56° 65.7° 46.7° - - 1015.0
3/28 4:30pm 295 6 G 9 65° 75% - - 56° 65.7° 46.7° - - 1015.0
3/28 4:20pm 295 6 G 8 65° 74% - - 56° 65.7° 46.7° - - 1015.0
3/28 4:10pm 294 6 G 9 64° 75% - - 57° 65.7° 46.7° - - 1015.0
3/28 4:00pm 289 7 G 9 64° 78% - - 57° 65.7° 46.7° - - 1015.0
3/28 3:50pm 285 6 G 9 65° 77% - - 57° 65.7° 46.7° - - 1015.0
3/28 3:40pm 279 5 G 8 65° 77% - - 57° 65.7° 46.7° - - 1015.0
3/28 3:30pm 270 6 G 8 64° 77% - - 57° 65.7° 46.7° - - 1016.0
3/28 3:20pm 269 5 G 7 65° 75% - - 57° 65.7° 46.7° - - 1016.0
3/28 3:10pm 272 5 G 7 65° 75% - - 57° 65.7° 46.7° - - 1016.0
3/28 3:00pm 273 5 G 8 65° 76% - - 57° 65.7° 46.7° - - 1016.0
3/28 2:50pm 291 5 G 7 64° 77% - - 57° 64.8° 46.7° - - 1016.0
3/28 2:40pm 290 5 G 8 64° 76% - - 56° 64.7° 46.7° - - 1016.0
3/28 2:30pm 299 4 G 8 64° 75% - - 56° 64.7° 46.7° - - 1016.0
3/28 2:20pm 293 6 G 9 64° 75% - - 56° 64.7° 46.7° - - 1016.0
3/28 2:10pm 295 7 G 10 64° 75% - - 56° 64.7° 46.7° - - 1016.0
3/28 2:00pm 300 5 G 8 64° 76% - - 56° 64.7° 46.7° - - 1017.0
3/28 1:50pm 308 4 G 7 64° 77% - - 57° 64.7° 46.7° - - 1017.0
3/28 1:40pm 307 5 G 7 64° 78% - - 57° 64.4° 46.7° - - 1017.0
3/28 1:30pm 313 5 G 7 64° 78% - - 56° 64.4° 46.7° - - 1017.0
3/28 1:20pm 301 6 G 8 63° 80% - - 57° 64.2° 46.7° - - 1017.0
3/28 1:10pm 289 6 G 9 63° 83% - - 58° 63.7° 46.7° - - 1017.0
3/28 1:00pm 297 6 G 8 63° 84% - - 58° 63.4° 46.7° - - 1017.0
3/28 12:50pm 296 6 G 9 63° 85% - - 58° 63.1° 46.7° - - 1017.0
3/28 12:40pm 296 6 G 8 62° 86% - - 58° 63.1° 46.7° - - 1017.0
3/28 12:30pm 290 7 G 9 62° 86% - - 58° 63.1° 46.7° - - 1017.0
3/28 12:20pm 288 6 G 8 62° 86% - - 58° 63.1° 46.7° - - 1017.0
3/28 12:10pm 289 7 G 10 62° 86% - - 57° 63.1° 46.7° - - 1018.0
3/28 12:00pm 287 8 G 10 62° 85% - - 57° 63.1° 46.7° - - 1018.0
3/28 11:50am 288 9 G 13 62° 82% - - 56° 63.1° 46.7° - - 1018.0
3/28 11:40am 279 9 G 13 62° 80% - - 56° 63.1° 46.7° - - 1018.0
3/28 11:30am 277 7 G 10 63° 77% - - 55° 63.1° 46.7° - - 1018.0
3/28 11:20am 255 4 G 8 62° 81% - - 56° 62.6° 46.7° - - 1018.0
3/28 11:10am 263 5 G 8 61° 83% - - 56° 62.2° 46.7° - - 1018.0
3/28 11:00am 268 6 G 8 61° 83% - - 55° 61.3° 46.7° - - 1018.0
3/28 10:50am 265 6 G 8 60° 82% - - 55° 61.3° 46.7° - - 1018.0
3/28 10:40am 274 4 G 8 60° 81% - - 55° 61.3° 46.7° - - 1018.0
3/28 10:30am 291 4 G 7 60° 80% - - 54° 61° 46.7° - - 1018.0
3/28 10:20am 297 5 G 7 60° 81% - - 54° 61° 46.7° - - 1018.0
3/28 10:10am 279 4 G 6 60° 80% - - 54° 61° 46.7° - - 1018.0
3/28 10:00am 285 3 G 5 60° 81% - - 54° 61° 46.7° - - 1018.0
3/28 9:50am 292 5 G 6 60° 80% - - 54° 61° 46.7° - - 1018.0
3/28 9:40am 286 5 G 7 60° 80% - - 54° 61° 46.7° - - 1018.0
3/28 9:30am 289 3 G 5 60° 79% - - 54° 61° 46.7° - - 1018.0
3/28 9:20am 120 1 G 3 60° 80% - - 54° 60.8° 46.7° - - 1018.0
3/28 9:10am 108 3 G 5 58° 82% - - 53° 59.4° 46.7° - - 1018.0
3/28 9:00am 93 5 G 6 58° 85% - - 53° 58° 46.7° - - 1018.0
3/28 8:50am 94 4 G 6 57° 88% - - 53° 57.4° 46.7° - - 1018.0
3/28 8:40am 89 5 G 7 55° 90% - - 52° 55.7° 46.7° - - 1018.0
3/28 8:30am 88 7 G 8 54° 91% - - 52° 54.7° 46.7° - - 1018.0
3/28 8:20am 90 6 G 8 54° 93% - - 52° 54.4° 46.7° - - 1017.0
3/28 8:10am 91 7 G 10 53° 95% - - 51° 54.2° 46.7° - - 1017.0
3/28 8:00am 91 6 G 9 52° 96% - - 51° 54.2° 46.7° - - 1017.0
3/28 7:50am 96 6 G 9 51° 97% - - 50° 54.2° 46.7° - - 1017.0
3/28 7:40am 93 5 G 8 50° 97% - - 49° 54.2° 46.7° - - 1017.0
3/28 7:30am 88 6 G 8 49° 98% - - 49° 54.2° 46.7° - - 1017.0
3/28 7:20am 95 6 G 9 49° 98% - - 49° 54.2° 46.7° - - 1017.0
3/28 7:10am 97 6 G 9 49° 99% - - 48° 54.2° 46.7° - - 1017.0
3/28 7:00am 101 7 G 10 48° 99% - - 48° 54.2° 46.7° - - 1016.0
3/28 6:50am 94 7 G 10 48° 99% - - 48° 54.2° 46.7° - - 1016.0
3/28 6:40am 100 8 G 11 48° 99% - - 48° 54.2° 46.7° - - 1017.0
3/28 6:30am 104 8 G 11 48° 99% - - 47° 54.2° 46.7° - - 1017.0
3/28 6:20am 96 10 G 13 48° 99% - - 47° 54.2° 46.8° - - 1016.0
3/28 6:10am 89 7 G 10 48° 99% - - 48° 54.2° 48° - - 1017.0
3/28 6:00am 97 5 G 8 49° 99% - - 49° 54.2° 48° - - 1017.0